• In Russia
  • List of Countries
  • For 7 days
  • Water Temperature
  • Satellite Maps
  • Weather Map
  • Weather Widgets
  • user-avatar
    Login

    Hourly Weather Samarqand

    Today, 25 November, Saturday

    Time Temperature Precipitation Wind Pressure Humidity
    00:00 +12°C° 0 mm 2 mps 699 mmHg 64%
    01:00 +12°C° 0 mm 2 mps 698 mmHg 63%
    02:00 +10°C° 0 mm 2 mps 698 mmHg 63%
    03:00 +10°C° 0 mm 2 mps 698 mmHg 63%
    04:00 +10°C° 0 mm 2 mps 698 mmHg 63%
    05:00 +10°C° 0 mm 2 mps 698 mmHg 62%
    06:00 +10°C° 0 mm 2 mps 698 mmHg 60%
    07:00 +10°C° 0 mm 2 mps 698 mmHg 59%
    08:00 +12°C° 0.1 mm 2 mps 698 mmHg 60%
    09:00 +11°C° 0.1 mm 3 mps 699 mmHg 61%
    10:00 +12°C° 0.1 mm 4 mps 699 mmHg 62%
    11:00 +11°C° 0.5 mm 3 mps 699 mmHg 64%
    12:00 +11°C° 0.5 mm 3 mps 699 mmHg 67%
    13:00 +10°C° 0.5 mm 2 mps 699 mmHg 70%
    14:00 +10°C° 0.7 mm 2 mps 699 mmHg 72%
    15:00 +10°C° 0.7 mm 3 mps 699 mmHg 74%
    16:00 +9°C° 0.7 mm 3 mps 700 mmHg 76%
    17:00 +9°C° 0.4 mm 3 mps 700 mmHg 76%
    18:00 +9°C° 0.4 mm 3 mps 701 mmHg 76%
    19:00 +8°C° 0.4 mm 4 mps 702 mmHg 76%
    20:00 +8°C° 0.1 mm 4 mps 702 mmHg 78%
    21:00 +8°C° 0.1 mm 4 mps 702 mmHg 80%
    22:00 +7°C° 0.1 mm 4 mps 703 mmHg 82%
    23:00 +7°C° 0.1 mm 4 mps 703 mmHg 83%

    Tomorrow, 26 November, Sunday

    Time Temperature Precipitation Wind Pressure Humidity
    00:00 +6°C° 0.1 mm 4 mps 703 mmHg 85%
    01:00 +6°C° 0.1 mm 4 mps 704 mmHg 86%
    02:00 +6°C° 0.1 mm 4 mps 704 mmHg 86%
    03:00 +6°C° 0.1 mm 4 mps 704 mmHg 85%
    04:00 +6°C° 0.1 mm 4 mps 704 mmHg 85%
    05:00 +5°C° 0.5 mm 4 mps 705 mmHg 85%
    06:00 +5°C° 0.5 mm 4 mps 705 mmHg 85%
    07:00 +5°C° 0.5 mm 4 mps 705 mmHg 85%
    08:00 +5°C° 0.8 mm 5 mps 706 mmHg 82%
    09:00 +4°C° 0.8 mm 6 mps 706 mmHg 78%
    10:00 +4°C° 0.8 mm 6 mps 707 mmHg 74%
    11:00 +4°C° 0.4 mm 7 mps 707 mmHg 70%
    12:00 +4°C° 0.4 mm 7 mps 707 mmHg 67%
    13:00 +4°C° 0.4 mm 7 mps 707 mmHg 63%
    14:00 +4°C° 0 mm 7 mps 707 mmHg 62%
    15:00 +4°C° 0 mm 6 mps 707 mmHg 61%
    16:00 +5°C° 0 mm 5 mps 707 mmHg 60%
    17:00 +4°C° 0 mm 4 mps 708 mmHg 63%
    18:00 +4°C° 0 mm 4 mps 708 mmHg 65%
    19:00 +3°C° 0 mm 3 mps 708 mmHg 67%
    20:00 +4°C° 0 mm 2 mps 708 mmHg 68%
    21:00 +3°C° 0 mm 2 mps 708 mmHg 69%
    22:00 +4°C° 0 mm 1 mps 708 mmHg 70%
    23:00 +4°C° 0 mm 1 mps 708 mmHg 71%

    Day after tomorrow, 27 November, Monday

    Time Temperature Precipitation Wind Pressure Humidity
    00:00 +3°C° 0 mm 1 mps 708 mmHg 72%
    01:00 +3°C° 0 mm 1 mps 707 mmHg 73%
    02:00 +2°C° 0 mm 2 mps 707 mmHg 72%
    03:00 +2°C° 0 mm 2 mps 707 mmHg 72%
    04:00 +2°C° 0 mm 2 mps 706 mmHg 72%
    05:00 +2°C° 0 mm 2 mps 706 mmHg 70%
    06:00 +2°C° 0 mm 2 mps 706 mmHg 68%
    07:00 +2°C° 0 mm 2 mps 706 mmHg 66%
    08:00 +3°C° 0 mm 3 mps 706 mmHg 58%
    09:00 +5°C° 0 mm 3 mps 706 mmHg 51%
    10:00 +8°C° 0 mm 3 mps 706 mmHg 43%
    11:00 +9°C° 0 mm 3 mps 705 mmHg 41%
    12:00 +9°C° 0 mm 3 mps 705 mmHg 38%
    13:00 +10°C° 0 mm 3 mps 704 mmHg 35%
    14:00 +9°C° 0 mm 3 mps 704 mmHg 38%
    15:00 +8°C° 0 mm 3 mps 703 mmHg 41%
    16:00 +7°C° 0 mm 3 mps 703 mmHg 44%
    17:00 +7°C° 0 mm 3 mps 703 mmHg 46%
    18:00 +5°C° 0 mm 3 mps 703 mmHg 48%
    19:00 +5°C° 0 mm 3 mps 703 mmHg 50%
    20:00 +4°C° 0 mm 3 mps 703 mmHg 51%
    21:00 +4°C° 0 mm 3 mps 702 mmHg 51%
    22:00 +5°C° 0 mm 2 mps 702 mmHg 52%
    23:00 +5°C° 0 mm 2 mps 702 mmHg 51%

    28 November, Tuesday

    Time Temperature Precipitation Wind Pressure Humidity
    00:00 +5°C° 0 mm 2 mps 702 mmHg 50%
    01:00 +5°C° 0 mm 2 mps 702 mmHg 49%
    02:00 +5°C° 0 mm 2 mps 701 mmHg 47%
    03:00 +5°C° 0 mm 2 mps 701 mmHg 46%
    04:00 +5°C° 0 mm 2 mps 701 mmHg 45%
    05:00 +5°C° 0 mm 2 mps 701 mmHg 43%
    06:00 +7°C° 0 mm 1 mps 701 mmHg 42%
    07:00 +7°C° 0 mm 1 mps 701 mmHg 40%
    08:00 +9°C° 0 mm 1 mps 702 mmHg 36%
    09:00 +11°C° 0 mm 1 mps 702 mmHg 31%
    10:00 +12°C° 0 mm 0 mps 702 mmHg 27%
    11:00 +13°C° 0 mm 1 mps 702 mmHg 26%
    12:00 +14°C° 0 mm 2 mps 702 mmHg 25%
    13:00 +15°C° 0 mm 2 mps 702 mmHg 24%
    14:00 +14°C° 0 mm 2 mps 702 mmHg 27%
    15:00 +13°C° 0 mm 2 mps 702 mmHg 30%
    16:00 +11°C° 0 mm 1 mps 701 mmHg 33%
    17:00 +11°C° 0 mm 1 mps 702 mmHg 35%
    18:00 +10°C° 0 mm 1 mps 702 mmHg 37%
    19:00 +8°C° 0 mm 0 mps 702 mmHg 39%
    20:00 +8°C° 0 mm 0 mps 702 mmHg 40%
    21:00 +8°C° 0 mm 0 mps 702 mmHg 40%
    22:00 +8°C° 0 mm 0 mps 702 mmHg 41%
    23:00 +8°C° 0 mm 1 mps 702 mmHg 42%

    29 November, Wednesday

    Time Temperature Precipitation Wind Pressure Humidity
    00:00 +8°C° 0 mm 1 mps 702 mmHg 43%
    01:00 +8°C° 0 mm 1 mps 702 mmHg 43%
    02:00 +8°C° 0 mm 1 mps 702 mmHg 44%
    03:00 +8°C° 0 mm 1 mps 702 mmHg 44%
    04:00 +8°C° 0 mm 1 mps 702 mmHg 45%
    05:00 +7°C° 0 mm 1 mps 703 mmHg 46%
    06:00 +7°C° 0 mm 1 mps 703 mmHg 47%
    07:00 +7°C° 0 mm 1 mps 704 mmHg 48%
    08:00 +8°C° 0 mm 1 mps 704 mmHg 45%
    09:00 +8°C° 0 mm 2 mps 704 mmHg 43%
    10:00 +9°C° 0 mm 2 mps 705 mmHg 40%
    11:00 +10°C° 0 mm 3 mps 705 mmHg 39%
    12:00 +10°C° 0 mm 3 mps 705 mmHg 38%
    13:00 +10°C° 0 mm 4 mps 704 mmHg 36%
    14:00 +10°C° 0 mm 4 mps 704 mmHg 38%
    15:00 +9°C° 0 mm 3 mps 704 mmHg 40%
    16:00 +8°C° 0 mm 3 mps 704 mmHg 41%
    17:00 +7°C° 0 mm 3 mps 705 mmHg 43%
    18:00 +6°C° 0 mm 2 mps 705 mmHg 45%
    19:00 +6°C° 0 mm 2 mps 705 mmHg 48%
    20:00 +5°C° 0 mm 2 mps 705 mmHg 48%
    21:00 +5°C° 0 mm 2 mps 705 mmHg 49%
    22:00 +4°C° 0 mm 2 mps 705 mmHg 50%
    23:00 +5°C° 0 mm 1 mps 705 mmHg 51%

    30 November, Thursday

    Time Temperature Precipitation Wind Pressure Humidity
    00:00 +5°C° 0 mm 1 mps 705 mmHg 52%
    01:00 +4°C° 0 mm 1 mps 705 mmHg 53%
    02:00 +4°C° 0 mm 1 mps 705 mmHg 53%
    03:00 +3°C° 0 mm 1 mps 705 mmHg 53%
    04:00 +3°C° 0 mm 1 mps 705 mmHg 53%
    05:00 +3°C° 0 mm 1 mps 706 mmHg 53%
    06:00 +2°C° 0 mm 0 mps 706 mmHg 53%
    07:00 +2°C° 0 mm 0 mps 706 mmHg 52%
    08:00 +3°C° 0 mm 0 mps 706 mmHg 47%
    09:00 +6°C° 0 mm 1 mps 706 mmHg 42%
    10:00 +8°C° 0 mm 1 mps 706 mmHg 37%
    11:00 +8°C° 0 mm 1 mps 706 mmHg 36%
    12:00 +9°C° 0 mm 1 mps 706 mmHg 34%
    13:00 +10°C° 0 mm 1 mps 705 mmHg 32%
    14:00 +8°C° 0 mm 2 mps 705 mmHg 35%
    15:00 +7°C° 0 mm 2 mps 705 mmHg 37%
    16:00 +7°C° 0 mm 2 mps 705 mmHg 40%
    17:00 +6°C° 0 mm 2 mps 705 mmHg 44%
    18:00 +4°C° 0 mm 3 mps 705 mmHg 49%
    19:00 +3°C° 0 mm 3 mps 705 mmHg 53%
    20:00 +3°C° 0 mm 3 mps 704 mmHg 53%
    21:00 +3°C° 0 mm 3 mps 704 mmHg 53%
    22:00 +4°C° 0 mm 2 mps 704 mmHg 54%
    23:00 +3°C° 0 mm 2 mps 704 mmHg 53%
    Show more